Retour au catalogue

STARLINK-30367

ActifCommunicationsVLEO
NORAD 57791·PAYLOAD·🇺🇸 United States

Lancé Sep 4, 2023 depuis Cape Canaveral Space Force Station

Loading…

Prochains Passages (prochaines 24 heures)

TLE

FraisSource: CelesTrak SupGP

Époque: Sep 14, 2026, 21:31 UTC

1 57791C 23134W   26257.89701389  .00015699  00000+0  56864-3 0  2577
2 57791  43.0006 205.9206 0001146 259.8237 106.9137 15.27569596    19

Suivez STARLINK-30367 en temps réel avec AllMySat

Download on the App Store